[[{"header":{"parameterUnit":"m.s-1","parameterCategory":1,"la1":30.2992,"la2":30.254,"lo1":-89.0895,"lo2":-89.0443,"dy":0.0025,"dx":0.0025,"nx":19,"ny":19,"refTime":"2026-03-08T21:00:00:Z","depth":0,"parameterNumber":2,"parameterNumberName":"U-component_of_WINDS"},"data":[0,0,0,-0.6321,-0.6321,-0.6336,-0.6336,-0.6355,-0.6356,0,0,0,0,0,0,0,0,0,0,0,-0.6316,-0.6317,-0.6321,-0.6321,-0.6336,-0.6336,-0.6355,-0.6356,0,0,0,0,0,0,0,0,0,0,0,-0.6316,-0.6317,-0.6317,-0.6322,-0.6336,-0.6336,-0.6355,-0.6344,0,0,0,0,0,0,0,0,0,0,-0.633,-0.6325,-0.6316,-0.6317,-0.6322,-0.6336,-0.6336,-0.6344,-0.6345,-0.6349,0,-0.6352,0,-0.6354,-0.6357,-0.6357,0,0,0,-0.6322,-0.6324,-0.6328,-0.6317,-0.6322,-0.6336,-0.6329,-0.6344,-0.6346,-0.6351,-0.6352,-0.6353,-0.6354,-0.6357,-0.6357,-0.6377,-0.6377,0,0,-0.6321,-0.6319,-0.6327,-0.6329,-0.6326,-0.6329,-0.633,-0.6345,-0.6347,-0.6352,-0.6353,-0.6354,-0.6357,-0.6357,-0.6377,-0.6377,0,0,0,-0.6319,-0.6318,-0.6322,-0.6328,-0.6331,-0.6329,-0.633,-0.6346,-0.6347,-0.6353,-0.6355,-0.6357,-0.6357,-0.6377,-0.6377,-0.6378,0,0,0,-0.6318,-0.6317,-0.6322,-0.6321,-0.6331,-0.6338,-0.6331,-0.6346,-0.6348,-0.6355,-0.6357,-0.6358,-0.6377,-0.6377,-0.6378,-0.6379,0,0,0,-0.6316,-0.6317,-0.6318,-0.632,-0.6326,-0.6338,-0.634,-0.6347,-0.6349,-0.6357,-0.6358,-0.6377,-0.6377,-0.6378,-0.6379,-0.6384,0,0,0,-0.6313,-0.6319,-0.6318,-0.6326,-0.6326,-0.6338,-0.634,-0.635,-0.6356,-0.6357,-0.6377,-0.6377,-0.6378,-0.6379,-0.6384,-0.6388,-0.639,0,0,-0.6319,-0.6319,-0.6324,-0.6324,-0.6336,-0.6336,-0.6349,-0.6357,-0.6361,-0.6372,-0.6372,-0.6378,-0.6379,-0.6384,-0.6399,-0.64,0,0,0,-0.6326,-0.6329,-0.6333,-0.6339,-0.6346,-0.6352,-0.6359,-0.6363,-0.6372,-0.6365,-0.6382,-0.6382,-0.6385,-0.6388,-0.6388,-0.6392,-0.6378,-0.6378,-0.6378,-0.6331,-0.6335,-0.6344,-0.635,-0.6356,-0.6364,-0.637,-0.6376,-0.6378,-0.6382,-0.6385,-0.6394,-0.6396,-0.6397,-0.64,-0.6388,-0.6388,-0.6388,-0.6388,-0.6342,-0.6348,-0.6351,-0.636,-0.6365,-0.6374,-0.6382,-0.6384,-0.6393,-0.6391,-0.6394,-0.6392,-0.6398,-0.6401,-0.6388,-0.6388,-0.6388,-0.6388,-0.6388,-0.6346,-0.6349,-0.6354,-0.6364,-0.6372,-0.6379,-0.6388,-0.6392,-0.6396,-0.6399,-0.6403,-0.6403,-0.6404,-0.6401,-0.6401,-0.6401,-0.6401,-0.6401,-0.6401,-0.6348,-0.6353,-0.636,-0.6369,-0.6374,-0.6382,-0.6391,-0.6397,-0.6405,-0.6407,-0.6407,-0.6409,-0.6398,-0.6395,-0.6401,-0.6401,-0.6401,-0.6401,-0.6401,-0.6357,-0.6356,-0.6366,-0.6372,-0.6383,-0.6392,-0.6397,-0.6409,-0.6415,-0.642,-0.6422,-0.6413,-0.6413,-0.6413,-0.641,-0.6421,-0.6421,-0.6421,-0.6421,-0.6361,-0.6362,-0.6374,-0.6382,-0.6392,-0.6398,-0.6412,-0.642,-0.6429,-0.6433,-0.6432,-0.6429,-0.6428,-0.643,-0.6429,-0.6427,-0.6441,-0.6441,-0.6441,-0.6367,-0.6369,-0.6379,-0.6386,-0.6396,-0.6405,-0.6418,-0.643,-0.6439,-0.6442,-0.6436,-0.6436,-0.6431,-0.643,-0.6431,-0.6429,-0.6425,0,0]},{"header":{"parameterUnit":"m.s-1","parameterCategory":1,"la1":30.2992,"la2":30.254,"lo1":-89.0895,"lo2":-89.0443,"dy":0.0025,"dx":0.0025,"nx":19,"ny":19,"refTime":"2026-03-08T21:00:00:Z","depth":0,"parameterNumber":3,"parameterNumberName":"V-component_of_WINDS"},"data":[0,0,0,2.9435,2.9435,2.9396,2.9396,2.9356,2.9355,0,0,0,0,0,0,0,0,0,0,0,2.9453,2.9453,2.9435,2.9435,2.9397,2.9396,2.9356,2.9355,0,0,0,0,0,0,0,0,0,0,0,2.9453,2.9453,2.9453,2.9435,2.9397,2.9396,2.9356,2.9381,0,0,0,0,0,0,0,0,0,0,2.9417,2.9439,2.9453,2.9453,2.9434,2.9397,2.9396,2.9383,2.938,2.9377,0,2.9377,0,2.9366,2.9353,2.9353,0,0,0,2.943,2.9442,2.9426,2.9453,2.9434,2.9397,2.9412,2.9381,2.9378,2.9374,2.9376,2.9374,2.9365,2.9353,2.9353,2.9355,2.9355,0,0,2.9432,2.9449,2.9428,2.9424,2.9432,2.9414,2.9411,2.9379,2.9383,2.9376,2.9373,2.9364,2.9353,2.9353,2.9355,2.9355,0,0,0,2.9441,2.9451,2.9435,2.9426,2.9419,2.9413,2.941,2.9384,2.9378,2.9373,2.9364,2.9353,2.9352,2.9355,2.9355,2.9384,0,0,0,2.9442,2.9456,2.9437,2.9447,2.942,2.9401,2.9416,2.938,2.9376,2.9364,2.9353,2.9352,2.9354,2.9355,2.9382,2.9394,0,0,0,2.9453,2.9457,2.9454,2.9448,2.9432,2.9401,2.9393,2.9379,2.9371,2.9353,2.9352,2.9354,2.9355,2.9381,2.9392,2.94,0,0,0,2.9469,2.9479,2.9455,2.9462,2.9432,2.942,2.9393,2.9382,2.9371,2.9353,2.9354,2.9355,2.9381,2.9391,2.9399,2.941,2.9417,0,0,2.9491,2.9482,2.9485,2.9462,2.9459,2.9424,2.9424,2.9397,2.9379,2.9364,2.9364,2.9383,2.9392,2.94,2.9445,2.9451,0,0,0,2.9498,2.95,2.9496,2.9486,2.9466,2.945,2.9422,2.9411,2.9398,2.9375,2.9387,2.9392,2.9396,2.9401,2.9405,2.9407,2.9358,2.9358,2.9358,2.9553,2.9531,2.9534,2.9508,2.9499,2.9469,2.946,2.9441,2.942,2.9423,2.9419,2.9449,2.9455,2.9458,2.9461,2.9423,2.9423,2.9423,2.9423,2.9583,2.9583,2.9556,2.955,2.9526,2.9521,2.9493,2.9478,2.9469,2.9451,2.9453,2.9435,2.9465,2.9466,2.9425,2.9424,2.9424,2.9424,2.9424,2.9617,2.9613,2.9602,2.9586,2.9576,2.9548,2.9541,2.9519,2.9498,2.95,2.9493,2.9493,2.949,2.9498,2.9498,2.9498,2.9499,2.9499,2.9499,2.9657,2.9643,2.964,2.962,2.9612,2.9597,2.9568,2.9558,2.9542,2.9526,2.9526,2.9505,2.9472,2.9464,2.95,2.95,2.95,2.95,2.95,2.9697,2.9684,2.968,2.9672,2.9647,2.9638,2.961,2.9593,2.9582,2.9579,2.9557,2.9536,2.9525,2.9522,2.9515,2.9562,2.9562,2.9562,2.9562,2.9726,2.9718,2.9709,2.9697,2.9682,2.9657,2.9652,2.9629,2.9603,2.9595,2.9585,2.9574,2.9572,2.9562,2.9558,2.9551,2.9606,2.9606,2.9606,2.9749,2.9739,2.974,2.9716,2.9695,2.9677,2.9672,2.9658,2.9626,2.9608,2.9588,2.9586,2.9569,2.9564,2.9546,2.9539,2.9527,0,0]}]]